User: anonymous   Login
Location: Chenango Forks
(42.2242°N, 75.8278°W)
Time: 16:43:28
(UTC-04:00)
Language:

Coronas F rocket - Orbit

View from above orbital plane
View from above orbital plane
View from above satellite
View from above satellite

Ground track
Ground track

The orbit data is extracted from the following two-line orbital elements,

1 26874U 01032B   16241.51532729  .00023792  00000-0  10420-3 0  9994
2 26874  82.4581 202.4447 0002933 286.8952  73.1995 15.84474291847083
Epoch (UTC): 28 August 2016 12:22:04
Eccentricity: 0.0002933
inclination: 82.4581°
perigee height: 316 km
apogee height: 320 km
right ascension of ascending node: 202.4447°
argument of perigee: 286.8952°
revolutions per day: 15.84474291
mean anomaly at epoch: 73.1995°
orbit number at epoch: 84708

The dashed part of the orbit path shows where the satellite is in the earth's shadow,  

DLR